Regional Weather Roundup
Issued by NWS Wakefield, VA

Home | Current Version | Previous Version | Text Only | Print | Product List | Glossary On
Versions: 1 2 3 4 5 6 7 8 9 10 11 12 13 14 15 16 17 18 19 20 21 22 23 24 25 26 27
000
ASUS41 KAKQ 281915
RWRAKQ

REGIONAL WEATHER ROUNDUP
NATIONAL WEATHER SERVICE WAKEFIELD VA
300 PM EDT SUN MAY 28 2017

Note: "fair" indicates few or no clouds below 12,000 feet with no
significant weather and/or obstructions to visibility. * = Denotes
station may not report precipitation (e.g., rain,snow,etc.),
thunder or fog.

VAZ042-051-052>054-056-282000-
NORTHERN VIRGINIA

CITY           SKY/WX    TMP DP  RH WIND       PRES   REMARKS
WASH NATIONAL  LGT RAIN  67  65  93 NE9       29.87F
DULLES         LGT RAIN  66  63  90 E9        29.86F FOG
FORT BELVOIR   CLOUDY    69  63  81 CALM      29.85F
QUANTICO       LGT RAIN  69  68  96 E6        29.85F
FREDERICKSBRG* CLOUDY    68  68 100 E3        29.83F
STAFFORD*      CLOUDY    68  67  98 E6        29.88F
WARRENTON      DRIZZLE   69  63  79 E7        29.85F
CULPEPER*      CLOUDY    70  65  84 E5        29.86F
MANASSAS*      LGT RAIN  68  64  87 E8        29.86F
LEESBURG*      CLOUDY    70  64  83 SE9       29.87F
WINCHESTER     LGT RAIN  64  61  88 SE7       29.86F
FRONT ROYAL*   CLOUDY    68  63  83 CALM      29.85S
LURAY*         HVY RAIN  64  64 100 CALM      29.86R
$$

VAZ048-049-060>072-079>083-282000-
CENTRAL AND SOUTH CENTRAL VIRGINIA

CITY           SKY/WX    TMP DP  RH WIND       PRES   REMARKS
RICHMOND       PTSUNNY   75  70  84 NE7       29.80F
CHESTERFIELD*  NOT AVBL
PETERSBURG*    CLOUDY    74  66  74 CALM      29.82F
HANOVER        PTSUNNY   74  67  78 E3        29.82F
TAPPAHANNOCK*  DRIZZLE   68  68 100 E9        29.83F
QUINTON*       CLOUDY   N/A N/A N/A MISG      29.80F
CHARLOTTSVILLE CLOUDY    69  65  86 N3        29.86S
GORDONSVILLE*  CLOUDY    69  66  90 NE3       29.85S
ORANGE*        CLOUDY    68  63  83 CALM      29.85S
LOUISA*        CLOUDY    72  70  94 CALM      29.84S
BUMPASS*       CLOUDY    71  68  93 CALM      29.83F
FARMVILLE*     CLOUDY    71  63  75 N6        29.83S
CREWE*         MOCLDY    75  68  80 CALM      29.82S
FORT PICKETT*  CLOUDY    75  68  77 CALM      29.82S
CHASE CITY*    MOCLDY    79  66  63 W6        29.82S
CLARKSVILLE*   FAIR      79  68  69 W8        29.82S
SOUTH HILL*    PTSUNNY   79  69  71 SW9       29.87S
LAWRENCEVILLE* CLOUDY    76  70  81 CALM      29.81S
EMPORIA*       CLOUDY    77  70  78 NW6       29.81S
$$

VAZ088>098-282000-
SOUTHEAST VIRGINIA

CITY           SKY/WX    TMP DP  RH WIND       PRES   REMARKS
NORFOLK        LGT RAIN  72  69  90 NE13      29.77F
VIRGINIA BEACH TSTM      68  65  90 N9        29.78S
NORFOLK NAVAL  NOT AVBL
WEST POINT*    CLOUDY    70  68  94 NE3       29.84F
SALUDA*        CLOUDY    68  67  98 CALM      29.84S
NEWPORT NEWS   RAIN      69  67  93 NE6       29.81F FOG
LANGLEY AFB    LGT RAIN  68  66  94 NW9       29.81S
FORT EUSTIS    CLOUDY    70  68  94 NE8       29.78F
WILLIAMSBURG*  CLOUDY    73  73 100 CALM      29.82F
HR EXEC AP*    CLOUDY    73  68  83 N6        29.76F
FRANKLIN*      CLOUDY    78  71  79 N6        29.78F
US460-WAKEFLD  PTSUNNY   77  70  79 N5        29.79F
$$

VAZ020-022-025-037-045-282000-
WEST CENTRAL AND SOUTHWEST VIRGINIA

CITY           SKY/WX    TMP DP  RH WIND       PRES   REMARKS
STAUNTON*      LGT RAIN  69  62  80 SE3       29.87F
WAYNESBORO*    CLOUDY    67  64  90 E7        29.86F
HOT SPRINGS VA CLOUDY    70  54  56 CALM      29.94S
LYNCHBURG      CLOUDY    71  65  81 CALM      29.85F
DANVILLE       CLOUDY    80  68  66 VRB5      29.82F
SOUTH BOSTON*  FAIR      80  66  60 NW5       29.83F
MARTINSVILLE   LGT RAIN  73  68  84 CALM      29.87R
ROANOKE        CLOUDY    77  66  68 SE13      29.83F
BLACKSBURG     CLOUDY    75  61  60 W3        29.90S
DUBLIN*        CLOUDY    76  55  47 SW13      29.89R
MARION*        CLOUDY    70  60  72 CALM      29.96R
HILLSVILLE*    CLOUDY    72  54  53 W3        29.92R
RICHLANDS*     CLOUDY    69  61  76 SW10      29.93F
WISE*          CLOUDY    68  57  68 SW10      29.95R
ABINGDON*      CLOUDY    72  63  73 W8        29.93S
$$

MDZ021>025-VAZ099-100-282000-
SOUTHERN MARYLAND AND THE DELMARVA PENINSULA

CITY           SKY/WX    TMP DP  RH WIND       PRES   REMARKS
PATUXENT RIVER LGT RAIN  69  67  93 S5        29.85F
BAY BRIDGE APT RAIN      68  64  88 S9G18     29.88R FOG
LEONARDTOWN    CLOUDY    68  63  83 SE3       29.87F
DOVER          CLOUDY    68  68 100 E10       29.87F
GEORGETOWN     CLOUDY    68  61  78 E8        29.89R
EASTON         LGT RAIN  72  63  73 S10G17    29.92R FOG
CAMBRIDGE      PTSUNNY   72  64  78 SE8       29.86S
SALISBURY      CLOUDY    68  67  96 E9        29.86S
OCEAN CITY     LGT RAIN  64  62  93 E7        29.87F
WALLOPS ISLAND CLOUDY    67  66  97 E10       29.85F
ACCOMACK*      DRIZZLE   67  25  20 E3        29.84S
$$

NCZ012>017-030>032-282000-
NORTH CENTRAL AND EASTERN NORTH CAROLINA

CITY           SKY/WX    TMP DP  RH WIND       PRES   REMARKS
ROANOKE RAPIDS FAIR      84  64  51 SW18      29.79S
RALEIGH        PTSUNNY   85  66  53 SW15G21   29.83F
ELIZABETH CITY CLOUDY    79  75  87 E9        29.75F
AHOSKIE*       NOT AVBL
EDENTON*       CLOUDY    86  71  60 SW12      29.75F
CURRITUCK*     CLOUDY    83  73  69 SE5       29.76F
KILL DEVIL HLS CLOUDY    84  70  63 S6G16     29.76F
MANTEO         CLOUDY    81  73  77 S16       29.77F
CAPE HATTERAS  CLOUDY    82  72  71 SW9G18    29.83F
TARBORO*       NOT AVBL
GOLDSBORO      MOSUNNY   91  66  44 SW16      29.79F
WASHINGTON     SUNNY     89  66  45 SW17G24   29.78S
GREENVILLE     SUNNY     90  64  43 SW16G23   29.81F
NEW BERN       MOSUNNY   91  68  46 W15G22    29.81F HX  95
WILMINGTON     CLOUDY    88  72  58 SW15G23   29.84F
$$

VAZ048-282000-
ELSEWHERE

CITY           SKY/WX    TMP DP  RH WIND       PRES   REMARKS
HARRISBURG PA  CLOUDY    71  63  75 SE7       29.86F
BALTIMORE      RAIN      67  66  97 SE7       29.88R FOG
ANNAPOLIS      LGT RAIN  70  65  84 S7G17     29.87S
ANDREWS AFB    DRIZZLE   66  63  91 E7        29.86F
PHILADELPHIA   PTSUNNY   76  60  57 SE10      29.88F
HENDERSON NC   SUNNY     77  63  62 W6        29.83S
GREENSBORO     PTSUNNY   82  66  58 SW12      29.84F
ROCKY MOUNT    SUNNY     87  67  51 SW12G22   29.79F
$$

VAZ100-282000-
MARINE

STATION/POSITION TIME  TEMP    WIND        PRES    WAVE   SWELL
                       AIR SEA DIR/SP/G            HT/PER HT/PER
                 (UTC) (F)     (DEG/KT/KT) (MB)    (FT/S) (FT/S)
CAPE MAY NJ      1836   65 63   90/ 10/ 14 1011.8F
LEWES DE         1836   63 65  120/ 10/ 13 1011.7S
15NM E FENWICK I 1750   62 60   80/ 12/ 14 1012.5    2/ 8   2/ 8
WACHAPREAGUE VA  1842   65 71   50/  7/ 11 1010.2F
THOMAS POINT MD  1900   65 65  140/  9/ 10   N/A
GOOSES REEF MD   1850   69      80/  4/  6 1011.8F
COVE POINT MD    1842   69     200/  5/  6 1011.5F
SOLOMONS ISLAND  1842   69 68  170/  6/  7   N/A
BISHOPS HEAD MD  1842   70 74   80/  5/  8 1011.2F
PINEY POINT MD   1848          180/  4/  5   N/A
POTOMAC MD       1850   68     110/  6/  8 1009.8S
CAMBRIDGE MD     1842   71 71                N/A
LEWISETTA VA     1842   68 71  130/  4/  4 1010.9R
RAPPAHANNOCK LGT 1848           90/ 10/ 11 1010.7F
STINGRAY PT      1850   67     110/  6/  8 1009.9F
YORK RVR RNG VA  1842   67      60/  9/ 11 1009.3F
YORKTOWN VA      1842   67 70   40/  8/ 12 1009.4F
JAMESTOWN VA     1850   71      50/  6/ 10   N/A
DOMINION TERM VA 1842   69      40/  7/ 12 1008.4F
KIPTOPEKE VA     1848      68   80/  2/  5   N/A
CHES BAY BRIDGE  1842   66 67   50/ 15/ 16 1008.7F
CAPE HENRY VA    1842   67      20/  2/  4   N/A
WILLOUBY STN VA  1842   67      40/ 12/ 14 1008.6F
S CRANEY ISL VA  1842   69      40/ 13/ 15 1008.5F
CAPE HENRY BUOY  1842      66                N/A     2/ 8
1ST LANDING BUOY 1850   67                 1009.3R
CAPE CHARLES BUO 1851      66                N/A     2/ 7
64NM E OF VA BCH 1850   69 67  130/  6/  8 1009.8F   3/ 6   3/ 6
DUCK PIER NC     1842   72 67  140/ 13/ 14 1007.9F
44100 DUCK FRF   1835      67                N/A     2/ 7
44056 DUCK FRF   1830      69                N/A     2/ 7
OREGON INLET NC  1848          170/ 11/ 14   N/A
HATTERAS NC      1842   79 74  190/  6/ 11 1009.8F
DIAMOND SHLS NC  1850   78 77  210/ 14/ 17 1010.2F   3/ 6   2/ 7
CAPE LOOKOUT NC  1800   79     200/ 15/ 19 1010.5F
$$




USA.gov is the U.S. government's official web portal to all federal, state and local government web resources and services.